星链-32484 (STARLINK-32484)

导读 | 豆包AI

STARLINK-32484是美国SpaceX公司星链(Starlink)星座的卫星,于2024年11月30日发射入轨。星链星座旨在为全球偏远无基础设施覆盖区域等提供高速卫星互联网接入服务,STARLINK-32484属于星链第二代部署批次,延续了星链卫星的设计架构,服务于全球星座网络扩容,支撑航空、海事、应急通信等多场景的宽带接入需求,助力星链完成全球低轨卫星互联网的组网建设。

基本信息
目录编号:
62160
目录名称:
STARLINK-32484
国际标识:
2024-224X
轨道中心:
EARTH
卫星名称:
星链-32484
卫星全名:
星链-32484 (STARLINK-32484)
卫星状态:
在轨 (已飞行517 天)
发射日期:
2024-11-30 UTC
国别 :
美国 (US)
星等 :
--
轨道信息
数据来源 国际轨道数据
星历时间: 2026-04-30T03:14:21+0800
1天前
查看轨道信息
半长轴: 6861.038km
偏心率: 0.0002334
轨道倾角: 43.004°
近地点辐角 278.471°
升交点赤经 229.728°
平近点角 81.588°
近地点: 481.299km
远地点: 484.503km
周期: 94.264分钟
每日圈数: 15.276296
详细信息
固有亮度:
5
最大亮度:
2.5
卫星平台:
Starlink V1.0
覆盖范围:
全球
运营商:
太空探索技术公司
运营商所在国:
美国
制造商(研发单位):
太空探索技术公司
制造商所在国:
美国
使用方式:
暂无
卫星简介
Starlink 计划是 SpaceX 推出的全球卫星互联网项目,通过发射低轨道卫星,为全球尤其是偏远地区提供高速、低延迟的互联网服务。自 2019 年起,Starlink 已部署数千颗卫星,旨在缩小全球数字鸿沟,推动互联网普及。该项目还为军事、航空等行业提供通信支持,带来广泛经济效益。
2D轨道图
3D轨道图
轨道高度分析图
轨道倾角分析图
轨道综合分析图
查看轨道综合分析图